User: anonymous   Login
Location: Caltech
(34.1382°N, 118.1253°W)
Time: 12:15:35
(UTC-07:00)
Language:

TITAN 4B R/B - Orbit

View from above orbital plane
View from above orbital plane
View from above satellite
View from above satellite

Ground track
Ground track

The orbit data is extracted from the following two-line orbital elements,

1 28647U 05016B   15171.84413662 0.00004000  00000-0  24045-3 0    03
2 28647  56.9966  85.2123 0135611 101.3198 258.6801 15.02960157    07
Epoch (UTC): 20 June 2015 20:15:33
Eccentricity: 0.0135611
inclination: 56.9966°
perigee height: 464 km
apogee height: 652 km
right ascension of ascending node: 85.2123°
argument of perigee: 101.3198°
revolutions per day: 15.02960157
mean anomaly at epoch: 258.6801°
orbit number at epoch: 0

The dashed part of the orbit path shows where the satellite is in the earth's shadow,  

DLR